Time,TemperatureF,DewpointF,PressureIn,WindDirection,WindDirectionDegrees,WindSpeedMPH,WindSpeedGustMPH,Humidity,HourlyPrecipIn,Conditions,Clouds,dailyrainin,SolarRadiationWatts/m^2,SoftwareType,DateUTC
2013-02-10 00:00:00,65.9,59.6,30.09,NNW,338,9.2,9.2,80,0.00,CLR,,0.00,0.0,WeatherDisplay:10.37,2013-02-10 10:00:00,
2013-02-10 00:05:00,65.9,59.6,30.09,ENE,67,7.0,7.0,80,0.00,CLR,,0.00,0.0,WeatherDisplay:10.37,2013-02-10 10:05:00,
2013-02-10 00:10:00,66.1,60.1,30.09,North,355,10.4,10.4,81,0.00,CLR,,0.00,0.0,WeatherDisplay:10.37,2013-02-10 10:10:00,
2013-02-10 00:15:00,66.1,60.1,30.09,ENE,64,11.5,11.5,81,0.00,CLR,,0.00,0.0,WeatherDisplay:10.37,2013-02-10 10:15:00,
2013-02-10 00:20:00,66.1,60.1,30.09,NNE,21,11.5,11.5,81,0.00,CLR,,0.00,0.0,WeatherDisplay:10.37,2013-02-10 10:20:00,
2013-02-10 00:25:00,66.1,59.7,30.09,NE,38,11.5,11.5,80,0.00,CLR,,0.00,0.0,WeatherDisplay:10.37,2013-02-10 10:25:00,
2013-02-10 00:30:00,66.0,59.7,30.08,NE,35,11.5,11.5,80,0.00,CLR,,0.00,0.0,WeatherDisplay:10.37,2013-02-10 10:30:00,
2013-02-10 00:35:00,66.0,59.7,30.08,NE,51,11.5,11.5,80,0.00,CLR,,0.00,0.0,WeatherDisplay:10.37,2013-02-10 10:35:00,
2013-02-10 00:40:00,65.9,59.6,30.08,NE,40,10.4,10.4,80,0.00,CLR,,0.00,0.0,WeatherDisplay:10.37,2013-02-10 10:40:00,
2013-02-10 00:45:00,65.8,59.5,30.08,NNW,333,6.9,6.9,80,0.00,CLR,,0.00,0.0,WeatherDisplay:10.37,2013-02-10 10:45:00,
2013-02-10 00:50:00,65.8,59.5,30.08,NE,40,10.4,10.4,80,0.00,CLR,,0.00,0.0,WeatherDisplay:10.37,2013-02-10 10:50:00,
2013-02-10 00:55:00,65.8,59.8,30.08,North,355,8.0,8.0,81,0.00,CLR,,0.00,0.0,WeatherDisplay:10.37,2013-02-10 10:55:00,
2013-02-10 01:00:00,65.9,59.9,30.08,ENE,60,9.2,9.2,81,0.00,CLR,,0.00,0.0,WeatherDisplay:10.37,2013-02-10 11:00:00,
2013-02-10 01:05:00,65.9,59.9,30.08,NNE,20,9.2,9.2,81,0.00,CLR,,0.00,0.0,WeatherDisplay:10.37,2013-02-10 11:05:00,
2013-02-10 01:10:00,66.0,60.0,30.08,ENE,73,6.9,6.9,81,0.00,CLR,,0.00,0.0,WeatherDisplay:10.37,2013-02-10 11:10:00,
2013-02-10 01:15:00,66.0,60.0,30.08,East,84,10.4,10.4,81,0.00,CLR,,0.00,0.0,WeatherDisplay:10.37,2013-02-10 11:15:00,
2013-02-10 01:20:00,65.9,59.9,30.08,NNE,21,11.0,11.0,81,0.00,CLR,,0.00,0.0,WeatherDisplay:10.37,2013-02-10 11:20:00,
2013-02-10 01:25:00,65.9,59.6,30.08,ENE,64,9.2,9.2,80,0.00,CLR,,0.00,0.0,WeatherDisplay:10.37,2013-02-10 11:25:00,
2013-02-10 01:30:00,66.0,59.7,30.08,East,79,11.5,11.5,80,0.00,CLR,,0.00,0.0,WeatherDisplay:10.37,2013-02-10 11:30:00,
2013-02-10 01:35:00,66.1,59.7,30.08,ENE,76,8.1,8.1,80,0.00,CLR,,0.00,0.0,WeatherDisplay:10.37,2013-02-10 11:35:00,
2013-02-10 01:40:00,66.1,59.7,30.08,ENE,69,10.0,10.0,80,0.00,CLR,,0.00,0.0,WeatherDisplay:10.37,2013-02-10 11:40:00,
2013-02-10 01:45:00,66.0,59.7,30.08,ENE,67,9.2,9.2,80,0.00,CLR,,0.00,0.0,WeatherDisplay:10.37,2013-02-10 11:45:00,
2013-02-10 01:50:00,66.1,59.7,30.08,North,11,8.1,8.1,80,0.00,CLR,,0.00,0.0,WeatherDisplay:10.37,2013-02-10 11:50:00,
2013-02-10 01:55:00,66.1,59.7,30.08,NE,51,8.1,8.1,80,0.00,CLR,,0.00,0.0,WeatherDisplay:10.37,2013-02-10 11:55:00,
2013-02-10 02:00:00,66.2,59.8,30.08,NNE,27,8.1,8.1,80,0.00,CLR,,0.00,0.0,WeatherDisplay:10.37,2013-02-10 12:00:00,
2013-02-10 02:05:00,66.2,59.8,30.08,NNE,30,11.5,11.5,80,0.00,CLR,,0.00,0.0,WeatherDisplay:10.37,2013-02-10 12:05:00,
2013-02-10 02:10:00,66.3,60.3,30.08,North,355,11.5,11.5,81,0.00,CLR,,0.00,0.0,WeatherDisplay:10.37,2013-02-10 12:10:00,
2013-02-10 02:15:00,66.3,60.3,30.08,NNE,30,10.4,10.4,81,0.00,CLR,,0.00,0.0,WeatherDisplay:10.37,2013-02-10 12:15:00,
2013-02-10 02:20:00,66.1,60.4,30.08,NNW,342,12.7,12.7,82,0.00,CLR,,0.00,0.0,WeatherDisplay:10.37,2013-02-10 12:20:00,
2013-02-10 02:25:00,65.8,60.5,30.07,ENE,64,15.0,15.0,83,0.00,CLR,,0.00,0.0,WeatherDisplay:10.37,2013-02-10 12:25:00,
2013-02-10 02:30:00,65.4,60.4,30.06,ENE,61,11.5,11.5,84,0.00,CLR,,0.00,0.0,WeatherDisplay:10.37,2013-02-10 12:30:00,
2013-02-10 02:35:00,65.1,60.1,30.07,North,360,10.4,10.4,84,0.00,CLR,,0.00,0.0,WeatherDisplay:10.37,2013-02-10 12:35:00,
2013-02-10 02:40:00,65.0,59.7,30.06,ENE,77,11.5,11.5,83,0.00,CLR,,0.00,0.0,WeatherDisplay:10.37,2013-02-10 12:40:00,
2013-02-10 02:45:00,65.0,59.7,30.07,ENE,69,12.0,12.0,83,0.00,CLR,,0.00,0.0,WeatherDisplay:10.37,2013-02-10 12:45:00,
2013-02-10 02:50:00,64.9,59.6,30.06,NNE,22,11.5,11.5,83,0.00,CLR,,0.00,0.0,WeatherDisplay:10.37,2013-02-10 12:50:00,
2013-02-10 02:55:00,64.9,59.6,30.06,NNW,340,6.9,6.9,83,0.00,CLR,,0.00,0.0,WeatherDisplay:10.37,2013-02-10 12:55:00,
2013-02-10 03:00:00,64.9,59.6,30.06,NNE,16,9.2,9.2,83,0.00,CLR,,0.00,0.0,WeatherDisplay:10.37,2013-02-10 13:00:00,
2013-02-10 03:05:00,64.8,59.5,30.06,NW,304,12.7,12.7,83,0.00,CLR,,0.00,0.0,WeatherDisplay:10.37,2013-02-10 13:05:00,
2013-02-10 03:10:00,64.9,59.6,30.06,NNW,346,13.8,13.8,83,0.00,CLR,,0.00,0.0,WeatherDisplay:10.37,2013-02-10 13:10:00,
2013-02-10 03:15:00,65.0,59.7,30.06,NE,52,17.3,17.3,83,0.00,CLR,,0.00,0.0,WeatherDisplay:10.37,2013-02-10 13:15:00,
2013-02-10 03:20:00,65.1,59.8,30.06,North,5,12.7,12.7,83,0.00,CLR,,0.00,0.0,WeatherDisplay:10.37,2013-02-10 13:20:00,
2013-02-10 03:25:00,65.2,59.9,30.06,East,90,16.1,16.1,83,0.00,CLR,,0.00,0.0,WeatherDisplay:10.37,2013-02-10 13:25:00,
2013-02-10 03:30:00,65.4,60.1,30.06,ENE,58,10.4,10.4,83,0.00,CLR,,0.00,0.0,WeatherDisplay:10.37,2013-02-10 13:30:00,
2013-02-10 03:35:00,65.5,60.2,30.06,NNW,347,16.1,16.1,83,0.00,CLR,,0.00,0.0,WeatherDisplay:10.37,2013-02-10 13:35:00,
2013-02-10 03:40:00,65.7,60.4,30.06,ENE,67,13.8,13.8,83,0.00,CLR,,0.00,0.0,WeatherDisplay:10.37,2013-02-10 13:40:00,
2013-02-10 03:45:00,65.8,60.5,30.06,NE,52,12.7,12.7,83,0.00,CLR,,0.00,0.0,WeatherDisplay:10.37,2013-02-10 13:45:00,
2013-02-10 03:50:00,65.8,60.5,30.07,North,5,16.0,16.0,83,0.00,CLR,,0.00,0.0,WeatherDisplay:10.37,2013-02-10 13:50:00,
2013-02-10 03:55:00,65.9,60.6,30.06,North,350,11.5,11.5,83,0.00,CLR,,0.00,0.0,WeatherDisplay:10.37,2013-02-10 13:55:00,
2013-02-10 04:00:00,66.0,60.7,30.07,NNE,31,11.5,11.5,83,0.00,CLR,,0.00,0.0,WeatherDisplay:10.37,2013-02-10 14:00:00,
2013-02-10 04:05:00,66.1,60.4,30.06,North,350,12.7,12.7,82,0.00,CLR,,0.00,0.0,WeatherDisplay:10.37,2013-02-10 14:05:00,
2013-02-10 04:10:00,66.2,60.5,30.07,North,11,10.4,10.4,82,0.00,CLR,,0.00,0.0,WeatherDisplay:10.37,2013-02-10 14:10:00,
2013-02-10 04:15:00,66.2,60.5,30.07,NNE,13,8.1,8.1,82,0.00,CLR,,0.00,0.0,WeatherDisplay:10.37,2013-02-10 14:15:00,
2013-02-10 04:20:00,66.2,60.5,30.07,NNE,27,8.1,8.1,82,0.00,CLR,,0.00,0.0,WeatherDisplay:10.37,2013-02-10 14:20:00,
2013-02-10 04:25:00,66.2,60.2,30.07,North,360,12.7,12.7,81,0.00,CLR,,0.00,0.0,WeatherDisplay:10.37,2013-02-10 14:25:00,
2013-02-10 04:30:00,66.3,60.3,30.07,NE,54,10.4,10.4,81,0.00,CLR,,0.00,0.0,WeatherDisplay:10.37,2013-02-10 14:30:00,
2013-02-10 04:35:00,66.3,60.3,30.07,NNE,15,8.1,8.1,81,0.00,CLR,,0.00,0.0,WeatherDisplay:10.37,2013-02-10 14:35:00,
2013-02-10 04:40:00,66.2,60.2,30.07,NNE,28,11.0,11.0,81,0.00,CLR,,0.00,0.0,WeatherDisplay:10.37,2013-02-10 14:40:00,
2013-02-10 04:45:00,66.2,60.2,30.07,NNW,345,10.4,10.4,81,0.00,CLR,,0.00,0.0,WeatherDisplay:10.37,2013-02-10 14:45:00,
2013-02-10 04:50:00,66.2,60.2,30.07,NE,39,11.5,11.5,81,0.00,CLR,,0.00,0.0,WeatherDisplay:10.37,2013-02-10 14:50:00,
2013-02-10 04:55:00,66.2,60.2,30.07,ENE,69,9.2,9.2,81,0.00,CLR,,0.00,0.0,WeatherDisplay:10.37,2013-02-10 14:55:00,
2013-02-10 05:00:00,66.2,60.2,30.07,NE,48,8.1,8.1,81,0.00,CLR,,0.00,0.0,WeatherDisplay:10.37,2013-02-10 15:00:00,
2013-02-10 05:05:00,66.1,60.1,30.07,ENE,73,11.5,11.5,81,0.00,CLR,,0.00,0.0,WeatherDisplay:10.37,2013-02-10 15:05:00,
2013-02-10 05:10:00,66.1,59.7,30.07,NNE,25,10.4,10.4,80,0.00,CLR,,0.00,0.0,WeatherDisplay:10.37,2013-02-10 15:10:00,
2013-02-10 05:15:00,66.0,59.7,30.08,NE,54,11.5,11.5,80,0.00,CLR,,0.00,0.0,WeatherDisplay:10.37,2013-02-10 15:15:00,
2013-02-10 05:20:00,66.1,59.4,30.08,NW,323,10.4,10.4,79,0.00,CLR,,0.00,0.0,WeatherDisplay:10.37,2013-02-10 15:20:00,
2013-02-10 05:25:00,66.0,59.7,30.08,North,360,10.4,10.4,80,0.00,CLR,,0.00,0.0,WeatherDisplay:10.37,2013-02-10 15:25:00,
2013-02-10 05:30:00,66.0,59.7,30.08,ESE,105,5.8,5.8,80,0.00,CLR,,0.00,0.0,WeatherDisplay:10.37,2013-02-10 15:30:00,
2013-02-10 05:35:00,66.0,59.3,30.08,North,355,10.0,10.0,79,0.00,CLR,,0.00,0.0,WeatherDisplay:10.37,2013-02-10 15:35:00,
2013-02-10 05:40:00,66.0,59.3,30.08,North,360,10.0,10.0,79,0.00,CLR,,0.00,0.0,WeatherDisplay:10.37,2013-02-10 15:40:00,
2013-02-10 05:45:00,65.9,59.6,30.09,NNE,26,8.1,8.1,80,0.00,CLR,,0.00,0.0,WeatherDisplay:10.37,2013-02-10 15:45:00,
2013-02-10 05:50:00,65.9,59.6,30.09,North,9,11.5,11.5,80,0.00,CLR,,0.00,0.0,WeatherDisplay:10.37,2013-02-10 15:50:00,
2013-02-10 05:55:00,65.9,59.6,30.09,NE,49,9.2,9.2,80,0.00,CLR,,0.00,0.0,WeatherDisplay:10.37,2013-02-10 15:55:00,
2013-02-10 06:00:00,66.1,59.7,30.09,NE,50,12.7,12.7,80,0.00,CLR,,0.00,0.0,WeatherDisplay:10.37,2013-02-10 16:00:00,
2013-02-10 06:05:00,66.1,59.7,30.09,NE,38,10.4,10.4,80,0.00,CLR,,0.00,0.0,WeatherDisplay:10.37,2013-02-10 16:05:00,
2013-02-10 06:10:00,66.1,59.7,30.10,North,5,10.4,10.4,80,0.00,CLR,,0.00,0.0,WeatherDisplay:10.37,2013-02-10 16:10:00,
2013-02-10 06:15:00,66.1,59.7,30.09,North,355,8.1,8.1,80,0.00,CLR,,0.00,0.0,WeatherDisplay:10.37,2013-02-10 16:15:00,
2013-02-10 06:20:00,66.1,59.7,30.09,NNE,30,8.1,8.1,80,0.00,CLR,,0.00,0.0,WeatherDisplay:10.37,2013-02-10 16:20:00,
2013-02-10 06:25:00,66.0,59.7,30.10,NE,51,10.4,10.4,80,0.00,CLR,,0.00,0.0,WeatherDisplay:10.37,2013-02-10 16:25:00,
2013-02-10 06:30:00,66.1,59.7,30.10,NNW,338,11.5,11.5,80,0.00,CLR,,0.00,0.0,WeatherDisplay:10.37,2013-02-10 16:30:00,
2013-02-10 06:35:00,66.1,59.7,30.10,NE,41,10.0,10.0,80,0.00,CLR,,0.00,0.0,WeatherDisplay:10.37,2013-02-10 16:35:00,
2013-02-10 06:40:00,66.1,59.7,30.10,ENE,74,17.3,17.3,80,0.00,CLR,,0.00,0.0,WeatherDisplay:10.37,2013-02-10 16:40:00,
2013-02-10 06:45:00,66.1,59.7,30.10,NNE,30,9.2,9.2,80,0.00,CLR,,0.00,0.0,WeatherDisplay:10.37,2013-02-10 16:45:00,
2013-02-10 06:50:00,66.1,59.7,30.10,East,84,9.2,9.2,80,0.00,CLR,,0.00,0.0,WeatherDisplay:10.37,2013-02-10 16:50:00,
2013-02-10 06:55:00,66.2,59.8,30.10,ENE,64,12.7,12.7,80,0.00,CLR,,0.00,0.0,WeatherDisplay:10.37,2013-02-10 16:55:00,
2013-02-10 07:00:00,66.3,59.9,30.11,ENE,61,11.5,11.5,80,0.00,CLR,,0.00,0.0,WeatherDisplay:10.37,2013-02-10 17:00:00,
2013-02-10 07:05:00,66.3,59.9,30.11,NE,53,9.2,9.2,80,0.00,CLR,,0.00,5.0,WeatherDisplay:10.37,2013-02-10 17:05:00,
2013-02-10 07:10:00,66.4,60.4,30.11,NNE,15,11.5,11.5,81,0.00,CLR,,0.00,7.0,WeatherDisplay:10.37,2013-02-10 17:10:00,
2013-02-10 07:15:00,66.4,60.4,30.11,North,9,11.5,11.5,81,0.00,SCT,,0.00,11.0,WeatherDisplay:10.37,2013-02-10 17:15:00,
2013-02-10 07:20:00,66.4,60.4,30.11,NE,55,11.0,11.0,81,0.00,BKN,,0.00,14.0,WeatherDisplay:10.37,2013-02-10 17:20:00,
2013-02-10 07:25:00,66.4,60.4,30.11,NNE,29,9.2,9.2,81,0.00,BKN,,0.00,18.0,WeatherDisplay:10.37,2013-02-10 17:25:00,
2013-02-10 07:30:00,66.4,60.4,30.12,NNE,16,10.4,10.4,81,0.00,BKN,,0.00,19.0,WeatherDisplay:10.37,2013-02-10 17:30:00,
2013-02-10 07:35:00,66.5,60.5,30.12,ENE,73,9.2,9.2,81,0.00,SCT,,0.00,39.0,WeatherDisplay:10.37,2013-02-10 17:35:00,
2013-02-10 07:40:00,66.7,60.7,30.12,NE,53,8.1,8.1,81,0.00,BKN,,0.00,46.0,WeatherDisplay:10.37,2013-02-10 17:40:00,
2013-02-10 07:45:00,66.8,60.4,30.12,NE,51,8.1,8.1,80,0.00,SCT,,0.00,60.0,WeatherDisplay:10.37,2013-02-10 17:45:00,
2013-02-10 07:50:00,67.0,60.6,30.12,ENE,57,12.7,12.7,80,0.00,FEW,,0.00,72.0,WeatherDisplay:10.37,2013-02-10 17:50:00,
2013-02-10 07:55:00,67.2,60.8,30.12,North,360,10.4,10.4,80,0.00,CLR,,0.00,91.0,WeatherDisplay:10.37,2013-02-10 17:55:00,
2013-02-10 08:00:00,67.4,61.0,30.12,North,360,10.4,10.4,80,0.00,CLR,,0.00,114.0,WeatherDisplay:10.37,2013-02-10 18:00:00,
2013-02-10 08:05:00,67.6,61.2,30.13,ESE,117,11.5,11.5,80,0.00,CLR,,0.00,137.0,WeatherDisplay:10.37,2013-02-10 18:05:00,
2013-02-10 08:10:00,67.7,61.3,30.13,NE,36,10.4,10.4,80,0.00,CLR,,0.00,162.0,WeatherDisplay:10.37,2013-02-10 18:10:00,
2013-02-10 08:15:00,67.9,61.5,30.13,NE,49,10.4,10.4,80,0.00,CLR,,0.00,183.0,WeatherDisplay:10.37,2013-02-10 18:15:00,
2013-02-10 08:20:00,68.1,61.3,30.13,ENE,64,13.8,13.8,79,0.00,CLR,,0.00,204.0,WeatherDisplay:10.37,2013-02-10 18:20:00,
2013-02-10 08:25:00,68.3,61.5,30.13,ENE,63,13.8,13.8,79,0.00,CLR,,0.00,225.0,WeatherDisplay:10.37,2013-02-10 18:25:00,
2013-02-10 08:30:00,68.4,61.3,30.14,NE,55,11.5,11.5,78,0.00,CLR,,0.00,244.0,WeatherDisplay:10.37,2013-02-10 18:30:00,
2013-02-10 08:35:00,68.6,61.5,30.14,NNE,22,11.5,11.5,78,0.00,CLR,,0.00,262.0,WeatherDisplay:10.37,2013-02-10 18:35:00,
2013-02-10 08:40:00,68.8,61.7,30.14,ENE,67,10.4,10.4,78,0.00,CLR,,0.00,292.0,WeatherDisplay:10.37,2013-02-10 18:40:00,
2013-02-10 08:45:00,69.1,61.6,30.14,NNE,22,8.1,8.1,77,0.00,CLR,,0.00,316.0,WeatherDisplay:10.37,2013-02-10 18:45:00,
2013-02-10 08:50:00,69.3,61.8,30.13,ENE,70,10.4,10.4,77,0.00,CLR,,0.00,329.0,WeatherDisplay:10.37,2013-02-10 18:50:00,
2013-02-10 08:55:00,69.5,62.0,30.14,NE,41,11.5,11.5,77,0.00,CLR,,0.00,369.0,WeatherDisplay:10.37,2013-02-10 18:55:00,
2013-02-10 09:00:00,69.7,61.8,30.14,NNW,331,11.5,11.5,76,0.00,CLR,,0.00,364.0,WeatherDisplay:10.37,2013-02-10 19:00:00,
2013-02-10 09:05:00,69.9,61.6,30.15,North,5,13.8,13.8,75,0.00,CLR,,0.00,378.0,WeatherDisplay:10.37,2013-02-10 19:05:00,
2013-02-10 09:10:00,70.1,61.8,30.14,ENE,74,12.7,12.7,75,0.00,CLR,,0.00,394.0,WeatherDisplay:10.37,2013-02-10 19:10:00,
2013-02-10 09:15:00,70.3,61.6,30.14,NE,38,12.0,12.0,74,0.00,CLR,,0.00,422.0,WeatherDisplay:10.37,2013-02-10 19:15:00,
2013-02-10 09:20:00,70.5,61.4,30.14,SE,137,12.7,12.7,73,0.00,CLR,,0.00,445.0,WeatherDisplay:10.37,2013-02-10 19:20:00,
2013-02-10 09:25:00,70.6,61.5,30.14,ENE,59,11.5,11.5,73,0.00,CLR,,0.00,446.0,WeatherDisplay:10.37,2013-02-10 19:25:00,
2013-02-10 09:30:00,70.8,61.3,30.14,North,5,13.8,13.8,72,0.00,CLR,,0.00,520.0,WeatherDisplay:10.37,2013-02-10 19:30:00,
2013-02-10 09:35:00,71.1,61.6,30.14,NE,54,9.2,9.2,72,0.00,BKN,,0.00,163.0,WeatherDisplay:10.37,2013-02-10 19:35:00,
2013-02-10 09:40:00,71.0,61.1,30.14,NE,51,9.2,9.2,71,0.00,OVC,,0.00,141.0,WeatherDisplay:10.37,2013-02-10 19:40:00,
2013-02-10 09:45:00,70.8,61.3,30.14,East,96,10.4,10.4,72,0.00,BKN,,0.00,220.0,WeatherDisplay:10.37,2013-02-10 19:45:00,
2013-02-10 09:50:00,70.8,61.7,30.14,East,92,9.2,9.2,73,0.00,BKN,,0.00,179.0,WeatherDisplay:10.37,2013-02-10 19:50:00,
2013-02-10 09:55:00,70.5,61.8,30.14,NNE,22,6.9,6.9,74,0.00,OVC,,0.00,128.0,WeatherDisplay:10.37,2013-02-10 19:55:00,
2013-02-10 10:00:00,70.1,61.8,30.14,ESE,105,10.4,10.4,75,0.00,OVC,,0.00,102.0,WeatherDisplay:10.37,2013-02-10 20:00:00,
2013-02-10 10:05:00,69.8,61.9,30.14,North,355,11.5,11.5,76,0.00,OVC,,0.00,113.0,WeatherDisplay:10.37,2013-02-10 20:05:00,
2013-02-10 10:10:00,69.4,62.6,30.15,NE,42,9.2,9.2,79,0.00,OVC,,0.00,128.0,WeatherDisplay:10.37,2013-02-10 20:10:00,
2013-02-10 10:15:00,68.9,62.8,30.15,ENE,61,8.0,8.0,81,0.00,OVC,,0.00,146.0,WeatherDisplay:10.37,2013-02-10 20:15:00,
2013-02-10 10:20:00,68.3,62.9,30.15,NE,51,9.2,9.2,83,0.00,OVC,,0.00,160.0,WeatherDisplay:10.37,2013-02-10 20:20:00,
2013-02-10 10:25:00,67.8,63.1,30.15,East,85,9.2,9.2,85,0.00,OVC,,0.00,153.0,WeatherDisplay:10.37,2013-02-10 20:25:00,
2013-02-10 10:30:00,67.6,63.3,30.16,ENE,61,10.4,10.4,86,0.00,OVC,,0.00,132.0,WeatherDisplay:10.37,2013-02-10 20:30:00,
2013-02-10 10:35:00,67.5,63.5,30.16,NE,53,8.1,8.1,87,0.00,OVC,,0.00,174.0,WeatherDisplay:10.37,2013-02-10 20:35:00,
2013-02-10 10:40:00,67.4,63.4,30.15,NE,40,8.1,8.1,87,0.00,BKN,,0.00,218.0,WeatherDisplay:10.37,2013-02-10 20:40:00,
2013-02-10 10:45:00,67.4,63.4,30.15,East,92,6.9,6.9,87,0.00,OVC,,0.00,172.0,WeatherDisplay:10.37,2013-02-10 20:45:00,
2013-02-10 10:50:00,67.4,63.7,30.15,ENE,64,7.0,7.0,88,0.00,BKN,,0.00,209.0,WeatherDisplay:10.37,2013-02-10 20:50:00,
2013-02-10 10:55:00,67.7,64.0,30.15,North,5,4.0,4.0,88,0.00,BKN,,0.00,234.0,WeatherDisplay:10.37,2013-02-10 20:55:00,
2013-02-10 11:00:00,67.7,64.0,30.15,North,5,11.5,11.5,88,0.00,OVC,,0.00,185.0,WeatherDisplay:10.37,2013-02-10 21:00:00,
2013-02-10 11:05:00,67.6,63.9,30.15,ENE,65,4.6,4.6,88,0.00,OVC,,0.00,197.0,WeatherDisplay:10.37,2013-02-10 21:05:00,
2013-02-10 11:10:00,67.6,64.2,30.14,NE,44,6.9,6.9,89,0.00,BKN,,0.00,199.0,WeatherDisplay:10.37,2013-02-10 21:10:00,
2013-02-10 11:15:00,67.6,64.2,30.14,NNE,29,8.1,8.1,89,0.00,BKN,,0.00,394.0,WeatherDisplay:10.37,2013-02-10 21:15:00,
2013-02-10 11:20:00,67.6,64.2,30.14,NNE,26,9.2,9.2,89,0.00,BKN,,0.00,323.0,WeatherDisplay:10.37,2013-02-10 21:20:00,
2013-02-10 11:25:00,67.9,64.9,30.14,NE,49,5.8,5.8,90,0.00,BKN,,0.00,279.0,WeatherDisplay:10.37,2013-02-10 21:25:00,
2013-02-10 11:30:00,68.0,64.6,30.14,NNW,332,9.2,9.2,89,0.00,OVC,,0.00,204.0,WeatherDisplay:10.37,2013-02-10 21:30:00,
2013-02-10 11:35:00,68.0,64.6,30.13,ENE,74,5.8,5.8,89,0.00,OVC,,0.00,186.0,WeatherDisplay:10.37,2013-02-10 21:35:00,
2013-02-10 11:40:00,68.1,64.7,30.13,NE,37,6.9,6.9,89,0.01,RA,,0.01,209.0,WeatherDisplay:10.37,2013-02-10 21:40:00,
2013-02-10 11:45:00,68.0,64.6,30.13,ENE,75,11.5,11.5,89,0.01,RA,,0.01,185.0,WeatherDisplay:10.37,2013-02-10 21:45:00,
2013-02-10 11:50:00,67.8,64.4,30.13,ENE,67,3.5,3.5,89,0.01,OVC,,0.01,188.0,WeatherDisplay:10.37,2013-02-10 21:50:00,
2013-02-10 11:55:00,67.7,64.7,30.13,ENE,59,5.0,5.0,90,0.02,RA,,0.02,165.0,WeatherDisplay:10.37,2013-02-10 21:55:00,
2013-02-10 12:00:00,67.6,64.6,30.13,ENE,67,6.9,6.9,90,0.02,RA,,0.02,139.0,WeatherDisplay:10.37,2013-02-10 22:00:00,
2013-02-10 12:05:00,67.6,64.9,30.13,ENE,57,5.8,5.8,91,0.03,RA,,0.04,171.0,WeatherDisplay:10.37,2013-02-10 22:05:00,
2013-02-10 12:10:00,67.7,65.3,30.12,NE,54,7.0,7.0,92,0.05,RA,,0.05,571.0,WeatherDisplay:10.37,2013-02-10 22:10:00,
2013-02-10 12:15:00,67.7,65.3,30.12,ENE,59,5.8,5.8,92,0.05,RA,,0.05,388.0,WeatherDisplay:10.37,2013-02-10 22:15:00,
2013-02-10 12:20:00,68.2,66.1,30.12,North,5,5.8,5.8,93,0.05,CLR,,0.05,870.0,WeatherDisplay:10.37,2013-02-10 22:20:00,
2013-02-10 12:25:00,68.5,66.1,30.11,NNE,16,9.2,9.2,92,0.05,BKN,,0.05,334.0,WeatherDisplay:10.37,2013-02-10 22:25:00,
2013-02-10 12:30:00,68.6,66.5,30.11,East,99,8.1,8.1,93,0.05,SCT,,0.05,455.0,WeatherDisplay:10.37,2013-02-10 22:30:00,
2013-02-10 12:35:00,68.7,66.3,30.11,NE,35,6.9,6.9,92,0.05,OVC,,0.05,236.0,WeatherDisplay:10.37,2013-02-10 22:35:00,
2013-02-10 12:40:00,68.4,66.0,30.11,ENE,68,7.0,7.0,92,0.04,CLR,,0.05,613.0,WeatherDisplay:10.37,2013-02-10 22:40:00,
2013-02-10 12:45:00,68.4,66.0,30.10,NNE,20,11.5,11.5,92,0.05,RA,,0.06,592.0,WeatherDisplay:10.37,2013-02-10 22:45:00,
2013-02-10 12:50:00,68.8,66.4,30.10,ENE,71,8.1,8.1,92,0.05,RA,,0.06,459.0,WeatherDisplay:10.37,2013-02-10 22:50:00,
2013-02-10 12:55:00,69.0,66.3,30.10,ENE,76,8.1,8.1,91,0.04,SCT,,0.06,686.0,WeatherDisplay:10.37,2013-02-10 22:55:00,
2013-02-10 13:00:00,69.4,66.3,30.10,NNE,33,8.1,8.1,90,0.04,SCT,,0.06,497.0,WeatherDisplay:10.37,2013-02-10 23:00:00,
2013-02-10 13:05:00,69.9,66.8,30.10,NE,36,5.8,5.8,90,0.03,BKN,,0.06,487.0,WeatherDisplay:10.37,2013-02-10 23:05:00,
2013-02-10 13:10:00,70.1,66.4,30.10,NNE,19,12.7,12.7,88,0.01,BKN,,0.06,274.0,WeatherDisplay:10.37,2013-02-10 23:10:00,
2013-02-10 13:15:00,70.0,66.0,30.10,NNW,348,11.5,11.5,87,0.01,SCT,,0.06,410.0,WeatherDisplay:10.37,2013-02-10 23:15:00,
2013-02-10 13:20:00,70.1,66.0,30.09,ENE,61,11.5,11.5,87,0.01,SCT,,0.06,367.0,WeatherDisplay:10.37,2013-02-10 23:20:00,
2013-02-10 13:25:00,70.1,65.7,30.09,NNE,21,5.8,5.8,86,0.01,CLR,,0.06,703.0,WeatherDisplay:10.37,2013-02-10 23:25:00,
2013-02-10 13:30:00,70.3,65.2,30.09,ENE,66,11.5,11.5,84,0.01,BKN,,0.06,279.0,WeatherDisplay:10.37,2013-02-10 23:30:00,
2013-02-10 13:35:00,70.4,65.0,30.08,NE,55,9.2,9.2,83,0.01,BKN,,0.06,253.0,WeatherDisplay:10.37,2013-02-10 23:35:00,
2013-02-10 13:40:00,70.6,64.8,30.08,ENE,58,8.1,8.1,82,0.01,BKN,,0.06,302.0,WeatherDisplay:10.37,2013-02-10 23:40:00,
2013-02-10 13:45:00,70.6,64.5,30.07,East,92,10.4,10.4,81,0.00,BKN,,0.06,383.0,WeatherDisplay:10.37,2013-02-10 23:45:00,
2013-02-10 13:50:00,70.6,64.1,30.07,SE,124,11.0,11.0,80,0.00,BKN,,0.06,367.0,WeatherDisplay:10.37,2013-02-10 23:50:00,
2013-02-10 13:55:00,70.7,63.9,30.07,East,80,6.9,6.9,79,0.00,SCT,,0.06,383.0,WeatherDisplay:10.37,2013-02-10 23:55:00,
2013-02-10 14:00:00,70.9,64.1,30.06,NNE,15,9.2,9.2,79,0.00,BKN,,0.06,352.0,WeatherDisplay:10.37,2013-02-11 00:00:00,
2013-02-10 14:05:00,71.3,64.4,30.06,North,5,6.9,6.9,79,0.00,BKN,,0.06,200.0,WeatherDisplay:10.37,2013-02-11 00:05:00,
2013-02-10 14:10:00,71.6,64.4,30.05,ENE,74,11.5,11.5,78,0.00,CLR,,0.06,872.0,WeatherDisplay:10.37,2013-02-11 00:10:00,
2013-02-10 14:15:00,72.2,65.0,30.05,East,90,9.0,9.0,78,0.00,CLR,,0.06,842.0,WeatherDisplay:10.37,2013-02-11 00:15:00,
2013-02-10 14:20:00,72.6,64.6,30.05,ENE,59,9.2,9.2,76,0.00,CLR,,0.06,942.0,WeatherDisplay:10.37,2013-02-11 00:20:00,
2013-02-10 14:25:00,72.9,64.5,30.05,ENE,73,8.1,8.1,75,0.00,BKN,,0.06,257.0,WeatherDisplay:10.37,2013-02-11 00:25:00,
2013-02-10 14:30:00,72.6,64.2,30.05,ENE,67,10.4,10.4,75,0.00,BKN,,0.06,232.0,WeatherDisplay:10.37,2013-02-11 00:30:00,
2013-02-10 14:35:00,72.5,64.5,30.05,North,355,8.1,8.1,76,0.00,CLR,,0.06,800.0,WeatherDisplay:10.37,2013-02-11 00:35:00,
2013-02-10 14:40:00,72.7,64.3,30.05,NE,42,10.4,10.4,75,0.00,CLR,,0.06,765.0,WeatherDisplay:10.37,2013-02-11 00:40:00,
2013-02-10 14:45:00,72.6,63.8,30.05,NNE,24,10.4,10.4,74,0.00,SCT,,0.06,362.0,WeatherDisplay:10.37,2013-02-11 00:45:00,
2013-02-10 14:50:00,72.6,63.8,30.05,ENE,63,10.4,10.4,74,0.00,SCT,,0.06,366.0,WeatherDisplay:10.37,2013-02-11 00:50:00,
2013-02-10 14:55:00,72.5,64.1,30.05,ENE,71,8.1,8.1,75,0.00,CLR,,0.06,842.0,WeatherDisplay:10.37,2013-02-11 00:55:00,
2013-02-10 15:00:00,72.8,64.4,30.04,ENE,67,10.0,10.0,75,0.00,CLR,,0.06,823.0,WeatherDisplay:10.37,2013-02-11 01:00:00,
2013-02-10 15:05:00,73.1,64.3,30.05,NNE,18,12.7,12.7,74,0.00,CLR,,0.06,853.0,WeatherDisplay:10.37,2013-02-11 01:05:00,
2013-02-10 15:10:00,73.1,63.9,30.05,ENE,71,13.8,13.8,73,0.00,BKN,,0.06,292.0,WeatherDisplay:10.37,2013-02-11 01:10:00,
2013-02-10 15:15:00,73.1,63.9,30.05,East,80,11.5,11.5,73,0.00,CLR,,0.06,737.0,WeatherDisplay:10.37,2013-02-11 01:15:00,
2013-02-10 15:20:00,73.3,64.5,30.05,East,90,9.2,9.2,74,0.00,CLR,,0.06,708.0,WeatherDisplay:10.37,2013-02-11 01:20:00,
2013-02-10 15:25:00,73.5,64.7,30.04,ENE,59,11.5,11.5,74,0.00,CLR,,0.06,664.0,WeatherDisplay:10.37,2013-02-11 01:25:00,
2013-02-10 15:30:00,73.5,64.3,30.04,ENE,65,6.9,6.9,73,0.00,CLR,,0.06,696.0,WeatherDisplay:10.37,2013-02-11 01:30:00,
2013-02-10 15:35:00,73.8,64.6,30.04,ENE,61,10.4,10.4,73,0.00,CLR,,0.06,598.0,WeatherDisplay:10.37,2013-02-11 01:35:00,
2013-02-10 15:40:00,74.2,65.0,30.05,NE,40,8.1,8.1,73,0.00,CLR,,0.06,633.0,WeatherDisplay:10.37,2013-02-11 01:40:00,
2013-02-10 15:45:00,74.2,64.6,30.04,ENE,57,8.1,8.1,72,0.00,CLR,,0.06,605.0,WeatherDisplay:10.37,2013-02-11 01:45:00,
2013-02-10 15:50:00,74.2,64.2,30.04,East,96,9.2,9.2,71,0.00,CLR,,0.06,654.0,WeatherDisplay:10.37,2013-02-11 01:50:00,
2013-02-10 15:55:00,74.4,64.4,30.03,East,94,9.2,9.2,71,0.00,CLR,,0.06,652.0,WeatherDisplay:10.37,2013-02-11 01:55:00,
2013-02-10 16:00:00,74.6,64.2,30.04,ENE,62,11.5,11.5,70,0.00,CLR,,0.06,638.0,WeatherDisplay:10.37,2013-02-11 02:00:00,
2013-02-10 16:05:00,74.8,64.4,30.04,NNE,29,11.5,11.5,70,0.00,CLR,,0.06,673.0,WeatherDisplay:10.37,2013-02-11 02:05:00,
2013-02-10 16:11:00,74.6,64.2,30.04,East,96,11.5,11.5,70,0.00,BKN,,0.06,149.0,WeatherDisplay:10.37,2013-02-11 02:11:00,
2013-02-10 16:16:00,73.9,64.3,30.04,NNE,25,5.8,5.8,72,0.00,OVC,,0.06,105.0,WeatherDisplay:10.37,2013-02-11 02:16:00,
2013-02-10 16:21:00,73.2,64.0,30.04,NNE,28,6.9,6.9,73,0.00,BKN,,0.06,552.0,WeatherDisplay:10.37,2013-02-11 02:21:00,
2013-02-10 16:26:00,72.9,64.1,30.05,NE,36,9.2,9.2,74,0.00,CLR,,0.06,487.0,WeatherDisplay:10.37,2013-02-11 02:26:00,
2013-02-10 16:31:00,72.9,63.7,30.04,NE,49,9.2,9.2,73,0.00,CLR,,0.06,494.0,WeatherDisplay:10.37,2013-02-11 02:31:00,
2013-02-10 16:36:00,73.0,63.8,30.04,North,355,8.1,8.1,73,0.00,CLR,,0.06,292.0,WeatherDisplay:10.37,2013-02-11 02:36:00,
2013-02-10 16:41:00,73.1,63.5,30.05,NE,52,8.1,8.1,72,0.00,CLR,,0.06,471.0,WeatherDisplay:10.37,2013-02-11 02:41:00,
2013-02-10 16:46:00,73.1,63.5,30.05,NE,46,10.4,10.4,72,0.00,CLR,,0.06,515.0,WeatherDisplay:10.37,2013-02-11 02:46:00,
2013-02-10 16:51:00,73.1,63.5,30.04,East,101,6.0,6.2,72,0.00,CLR,,0.06,403.0,WeatherDisplay:10.37,2013-02-11 02:51:00,
2013-02-10 16:56:00,72.9,63.7,30.05,East,92,5.8,5.8,73,0.00,SCT,,0.06,114.0,WeatherDisplay:10.37,2013-02-11 02:56:00,
2013-02-10 17:01:00,72.6,63.4,30.05,ENE,69,9.2,9.2,73,0.00,BKN,,0.06,100.0,WeatherDisplay:10.37,2013-02-11 03:01:00,
2013-02-10 17:06:00,72.3,63.2,30.05,NNE,24,8.1,8.1,73,0.00,CLR,,0.06,304.0,WeatherDisplay:10.37,2013-02-11 03:06:00,
2013-02-10 17:11:00,72.2,63.4,30.05,East,85,9.2,9.2,74,0.00,CLR,,0.06,271.0,WeatherDisplay:10.37,2013-02-11 03:11:00,
2013-02-10 17:16:00,72.2,63.4,30.05,NE,55,8.1,8.1,74,0.00,CLR,,0.06,274.0,WeatherDisplay:10.37,2013-02-11 03:16:00,
2013-02-10 17:21:00,72.3,63.5,30.05,NE,40,8.1,8.1,74,0.00,CLR,,0.06,206.0,WeatherDisplay:10.37,2013-02-11 03:21:00,
2013-02-10 17:26:00,72.1,63.4,30.05,NE,38,9.2,9.2,74,0.00,CLR,,0.06,193.0,WeatherDisplay:10.37,2013-02-11 03:26:00,
2013-02-10 17:31:00,72.0,63.3,30.06,East,95,8.1,8.1,74,0.00,CLR,,0.06,223.0,WeatherDisplay:10.37,2013-02-11 03:31:00,
2013-02-10 17:36:00,71.8,63.1,30.06,ENE,60,11.5,11.5,74,0.00,CLR,,0.06,107.0,WeatherDisplay:10.37,2013-02-11 03:36:00,
2013-02-10 17:41:00,71.6,63.3,30.06,NE,47,7.0,7.0,75,0.00,CLR,,0.06,79.0,WeatherDisplay:10.37,2013-02-11 03:41:00,
2013-02-10 17:46:00,71.3,63.0,30.06,ENE,69,9.2,9.2,75,0.00,CLR,,0.06,144.0,WeatherDisplay:10.37,2013-02-11 03:46:00,
2013-02-10 17:51:00,71.1,62.8,30.06,ENE,65,9.2,9.2,75,0.00,CLR,,0.06,146.0,WeatherDisplay:10.37,2013-02-11 03:51:00,
2013-02-10 17:56:00,71.1,63.1,30.07,ENE,61,8.0,8.0,76,0.00,CLR,,0.06,53.0,WeatherDisplay:10.37,2013-02-11 03:56:00,
2013-02-10 18:01:00,70.9,63.0,30.07,NE,51,5.0,5.0,76,0.00,SCT,,0.06,28.0,WeatherDisplay:10.37,2013-02-11 04:01:00,
2013-02-10 18:06:00,70.7,62.8,30.07,NE,42,8.1,8.1,76,0.00,FEW,,0.06,28.0,WeatherDisplay:10.37,2013-02-11 04:06:00,
2013-02-10 18:11:00,70.5,62.6,30.07,NNE,31,9.2,9.2,76,0.00,CLR,,0.06,33.0,WeatherDisplay:10.37,2013-02-11 04:11:00,
2013-02-10 18:16:00,70.3,62.7,30.07,NE,55,8.1,8.1,77,0.00,CLR,,0.06,23.0,WeatherDisplay:10.37,2013-02-11 04:16:00,
2013-02-10 18:21:00,70.1,62.6,30.07,ENE,66,8.1,8.1,77,0.00,CLR,,0.06,9.0,WeatherDisplay:10.37,2013-02-11 04:21:00,
2013-02-10 18:26:00,70.0,62.5,30.07,NE,38,8.1,8.1,77,0.00,,,0.06,7.0,WeatherDisplay:10.37,2013-02-11 04:26:00,
2013-02-10 18:31:00,69.8,62.3,30.07,NE,48,5.8,5.8,77,0.00,,,0.06,0.0,WeatherDisplay:10.37,2013-02-11 04:31:00,
2013-02-10 18:36:00,69.6,62.4,30.07,NE,44,9.2,9.2,78,0.00,,,0.06,0.0,WeatherDisplay:10.37,2013-02-11 04:36:00,
2013-02-10 18:41:00,69.4,62.2,30.07,East,90,11.5,11.5,78,0.00,,,0.06,0.0,WeatherDisplay:10.37,2013-02-11 04:41:00,
2013-02-10 18:46:00,69.2,62.4,30.07,East,86,10.4,10.4,79,0.00,,,0.06,0.0,WeatherDisplay:10.37,2013-02-11 04:46:00,
2013-02-10 18:51:00,68.9,62.1,30.08,ENE,74,13.8,13.8,79,0.00,,,0.06,0.0,WeatherDisplay:10.37,2013-02-11 04:51:00,
2013-02-10 18:56:00,68.8,62.0,30.08,ENE,57,11.5,11.5,79,0.00,,,0.06,0.0,WeatherDisplay:10.37,2013-02-11 04:56:00,
2013-02-10 19:00:00,68.8,62.0,30.08,ENE,65,10.4,10.4,79,0.00,,,0.06,0.0,WeatherDisplay:10.37,2013-02-11 05:00:00,
2013-02-10 19:05:00,68.7,62.3,30.08,ENE,66,9.2,9.2,80,0.00,,,0.06,0.0,WeatherDisplay:10.37,2013-02-11 05:05:00,
2013-02-10 19:10:00,68.6,62.2,30.08,NNE,30,8.1,8.1,80,0.00,,,0.06,0.0,WeatherDisplay:10.37,2013-02-11 05:10:00,
2013-02-10 19:15:00,68.6,62.2,30.08,East,80,10.4,10.4,80,0.00,,,0.06,0.0,WeatherDisplay:10.37,2013-02-11 05:15:00,
2013-02-10 19:20:00,68.4,62.0,30.08,East,89,8.1,8.1,80,0.00,,,0.06,0.0,WeatherDisplay:10.37,2013-02-11 05:20:00,
2013-02-10 19:25:00,68.3,62.2,30.09,NE,44,8.1,8.1,81,0.00,,,0.06,0.0,WeatherDisplay:10.37,2013-02-11 05:25:00,
2013-02-10 19:30:00,68.1,62.4,30.09,ENE,67,11.5,11.5,82,0.00,,,0.06,0.0,WeatherDisplay:10.37,2013-02-11 05:30:00,
2013-02-10 19:35:00,68.0,62.3,30.09,ENE,68,11.5,11.5,82,0.00,,,0.06,0.0,WeatherDisplay:10.37,2013-02-11 05:35:00,
2013-02-10 19:40:00,67.9,62.2,30.08,East,88,11.5,11.5,82,0.00,,,0.06,0.0,WeatherDisplay:10.37,2013-02-11 05:40:00,
2013-02-10 19:45:00,67.8,62.4,30.09,North,5,10.4,10.4,83,0.00,,,0.06,0.0,WeatherDisplay:10.37,2013-02-11 05:45:00,
2013-02-10 19:50:00,67.7,62.3,30.09,NE,51,11.5,11.5,83,0.00,,,0.06,0.0,WeatherDisplay:10.37,2013-02-11 05:50:00,
2013-02-10 19:55:00,67.7,62.3,30.10,ENE,57,10.4,10.4,83,0.00,,,0.06,0.0,WeatherDisplay:10.37,2013-02-11 05:55:00,
2013-02-10 20:00:00,67.7,62.3,30.10,NNE,15,5.8,5.8,83,0.00,,,0.06,0.0,WeatherDisplay:10.37,2013-02-11 06:00:00,
2013-02-10 20:05:00,67.6,62.3,30.11,NE,51,8.1,8.1,83,0.00,,,0.06,0.0,WeatherDisplay:10.37,2013-02-11 06:05:00,
2013-02-10 20:10:00,67.6,62.3,30.11,NE,53,6.9,6.9,83,0.00,,,0.06,0.0,WeatherDisplay:10.37,2013-02-11 06:10:00,
2013-02-10 20:15:00,67.4,62.4,30.12,NNE,24,9.2,9.2,84,0.00,,,0.06,0.0,WeatherDisplay:10.37,2013-02-11 06:15:00,
2013-02-10 20:20:00,67.1,62.4,30.11,North,5,12.0,12.0,85,0.00,,,0.06,0.0,WeatherDisplay:10.37,2013-02-11 06:20:00,
2013-02-10 20:25:00,66.8,62.1,30.11,ENE,71,11.5,11.5,85,0.00,,,0.06,0.0,WeatherDisplay:10.37,2013-02-11 06:25:00,
2013-02-10 20:30:00,66.8,62.1,30.12,East,81,9.2,9.2,85,0.00,,,0.06,0.0,WeatherDisplay:10.37,2013-02-11 06:30:00,
2013-02-10 20:35:00,66.8,61.8,30.12,NE,53,10.4,10.4,84,0.00,,,0.06,0.0,WeatherDisplay:10.37,2013-02-11 06:35:00,
2013-02-10 20:40:00,66.9,61.9,30.12,East,82,10.0,10.0,84,0.00,,,0.06,0.0,WeatherDisplay:10.37,2013-02-11 06:40:00,
2013-02-10 20:45:00,67.0,61.7,30.12,NE,50,8.1,8.1,83,0.00,,,0.06,0.0,WeatherDisplay:10.37,2013-02-11 06:45:00,
2013-02-10 20:50:00,67.1,61.4,30.12,NE,54,6.9,6.9,82,0.00,,,0.06,0.0,WeatherDisplay:10.37,2013-02-11 06:50:00,
2013-02-10 20:55:00,67.2,61.5,30.12,ESE,121,8.1,8.1,82,0.00,,,0.06,0.0,WeatherDisplay:10.37,2013-02-11 06:55:00,
2013-02-10 21:00:00,67.3,61.3,30.12,ENE,57,11.5,11.5,81,0.00,,,0.06,0.0,WeatherDisplay:10.37,2013-02-11 07:00:00,
2013-02-10 21:05:00,67.5,61.1,30.12,East,81,11.5,11.5,80,0.00,,,0.06,0.0,WeatherDisplay:10.37,2013-02-11 07:05:00,
2013-02-10 21:10:00,67.5,61.1,30.13,ENE,58,11.5,11.5,80,0.00,,,0.06,0.0,WeatherDisplay:10.37,2013-02-11 07:10:00,
2013-02-10 21:15:00,67.6,60.9,30.12,NE,40,11.0,11.0,79,0.00,,,0.06,0.0,WeatherDisplay:10.37,2013-02-11 07:15:00,
2013-02-10 21:20:00,67.7,61.0,30.13,East,82,11.5,11.5,79,0.00,,,0.06,0.0,WeatherDisplay:10.37,2013-02-11 07:20:00,
2013-02-10 21:25:00,67.6,60.9,30.12,ENE,69,11.5,11.5,79,0.00,,,0.06,0.0,WeatherDisplay:10.37,2013-02-11 07:25:00,
2013-02-10 21:30:00,67.7,61.0,30.12,ENE,71,12.7,12.7,79,0.00,,,0.06,0.0,WeatherDisplay:10.37,2013-02-11 07:30:00,
2013-02-10 21:35:00,67.6,60.9,30.12,NE,43,17.3,17.3,79,0.00,,,0.06,0.0,WeatherDisplay:10.37,2013-02-11 07:35:00,
2013-02-10 21:40:00,67.6,60.9,30.12,North,11,10.4,10.4,79,0.00,,,0.06,0.0,WeatherDisplay:10.37,2013-02-11 07:40:00,
2013-02-10 21:45:00,67.5,60.8,30.12,NE,56,11.5,11.5,79,0.00,,,0.06,0.0,WeatherDisplay:10.37,2013-02-11 07:45:00,
2013-02-10 21:50:00,67.4,61.0,30.13,North,5,11.0,11.0,80,0.00,,,0.06,0.0,WeatherDisplay:10.37,2013-02-11 07:50:00,
2013-02-10 21:55:00,67.4,61.0,30.12,North,5,10.4,10.4,80,0.00,,,0.06,0.0,WeatherDisplay:10.37,2013-02-11 07:55:00,
2013-02-10 22:00:00,67.5,60.8,30.13,NE,50,11.5,11.5,79,0.00,,,0.06,0.0,WeatherDisplay:10.37,2013-02-11 08:00:00,
2013-02-10 22:05:00,67.6,60.9,30.13,ENE,61,11.5,11.5,79,0.00,,,0.06,0.0,WeatherDisplay:10.37,2013-02-11 08:05:00,
2013-02-10 22:10:00,67.6,60.9,30.13,NE,51,11.5,11.5,79,0.00,,,0.06,0.0,WeatherDisplay:10.37,2013-02-11 08:10:00,
2013-02-10 22:15:00,67.5,60.8,30.14,NE,39,11.5,11.5,79,0.00,,,0.06,0.0,WeatherDisplay:10.37,2013-02-11 08:15:00,
2013-02-10 22:20:00,67.5,60.8,30.14,NNE,16,8.1,8.1,79,0.00,,,0.06,0.0,WeatherDisplay:10.37,2013-02-11 08:20:00,
2013-02-10 22:25:00,67.4,61.0,30.14,NE,42,10.4,10.4,80,0.00,,,0.06,0.0,WeatherDisplay:10.37,2013-02-11 08:25:00,
2013-02-10 22:30:00,67.3,60.9,30.14,ENE,57,7.0,7.0,80,0.00,,,0.06,0.0,WeatherDisplay:10.37,2013-02-11 08:30:00,
2013-02-10 22:35:00,67.3,60.9,30.15,ENE,66,9.2,9.2,80,0.00,,,0.06,0.0,WeatherDisplay:10.37,2013-02-11 08:35:00,
2013-02-10 22:40:00,67.4,61.0,30.15,North,360,6.9,6.9,80,0.00,,,0.06,0.0,WeatherDisplay:10.37,2013-02-11 08:40:00,
2013-02-10 22:45:00,67.4,61.0,30.15,ENE,72,9.2,9.2,80,0.00,,,0.06,0.0,WeatherDisplay:10.37,2013-02-11 08:45:00,
2013-02-10 22:50:00,67.4,61.0,30.15,NNW,346,11.5,11.5,80,0.00,,,0.06,0.0,WeatherDisplay:10.37,2013-02-11 08:50:00,
2013-02-10 22:55:00,67.5,61.1,30.15,North,9,9.0,9.0,80,0.00,,,0.06,0.0,WeatherDisplay:10.37,2013-02-11 08:55:00,
2013-02-10 23:00:00,67.5,61.5,30.15,NNE,22,10.4,10.4,81,0.00,,,0.06,0.0,WeatherDisplay:10.37,2013-02-11 09:00:00,
2013-02-10 23:05:00,67.5,61.5,30.15,North,355,12.7,12.7,81,0.00,,,0.06,0.0,WeatherDisplay:10.37,2013-02-11 09:05:00,
2013-02-10 23:10:00,67.5,61.5,30.15,North,351,4.6,4.6,81,0.00,,,0.06,0.0,WeatherDisplay:10.37,2013-02-11 09:10:00,
2013-02-10 23:15:00,67.5,61.5,30.15,NE,38,6.9,6.9,81,0.00,,,0.06,0.0,WeatherDisplay:10.37,2013-02-11 09:15:00,
2013-02-10 23:20:00,67.5,61.5,30.15,ENE,65,8.0,8.0,81,0.00,,,0.06,0.0,WeatherDisplay:10.37,2013-02-11 09:20:00,
2013-02-10 23:25:00,67.5,61.5,30.15,NE,35,5.8,5.8,81,0.00,,,0.06,0.0,WeatherDisplay:10.37,2013-02-11 09:25:00,
2013-02-10 23:30:00,67.4,61.4,30.16,North,11,9.2,9.2,81,0.00,,,0.06,0.0,WeatherDisplay:10.37,2013-02-11 09:30:00,
2013-02-10 23:35:00,67.4,61.7,30.16,NNE,31,8.1,8.1,82,0.00,,,0.06,0.0,WeatherDisplay:10.37,2013-02-11 09:35:00,
2013-02-10 23:40:00,67.5,61.8,30.16,North,355,10.4,10.4,82,0.00,,,0.06,0.0,WeatherDisplay:10.37,2013-02-11 09:40:00,
2013-02-10 23:45:00,67.5,61.8,30.15,NE,37,10.4,10.4,82,0.00,,,0.06,0.0,WeatherDisplay:10.37,2013-02-11 09:45:00,
2013-02-10 23:50:00,67.5,61.8,30.15,NE,40,8.1,8.1,82,0.00,,,0.06,0.0,WeatherDisplay:10.37,2013-02-11 09:50:00,
2013-02-10 23:55:00,67.5,61.8,30.15,NNE,30,9.2,9.2,82,0.00,,,0.06,0.0,WeatherDisplay:10.37,2013-02-11 09:55:00,